DAL2018 KMCO-GOBD

Flight info

Callsign DAL2018
Flight time N/A
Altitude 37000
Route MZULO3 LENDS M203 SNAGY 2960N 2957N 2950N 2945N 2842N 2740N 2434N ULTEM UR976 LUMPO R976 LIGOV
Aircraft A359/H-SDE2E3GHIJ3J4J5LM1ORWXY/LB1D1

Departure

Time 2026-04-25 12:49
Airport Orlando International Airport (KMCO)

Arrival

Time N/A
Airport Blaise Diagne International Airport (GOBD)
Time Latitude Longitude Altitude Speed Heading
2026-04-25 11:02 28.42582 -81.29990 109 ft 0 kts 277°
2026-04-25 12:40 28.42583 -81.29996 107 ft 2 kts 277°
2026-04-25 12:40 28.42580 -81.29968 108 ft 4 kts 277°
2026-04-25 12:40 28.42576 -81.29937 108 ft 4 kts 278°
2026-04-25 12:40 28.42571 -81.29907 108 ft 4 kts 288°
2026-04-25 12:41 28.42560 -81.29883 109 ft 4 kts 334°
2026-04-25 12:41 28.42543 -81.29881 108 ft 4 kts 11°
2026-04-25 12:41 28.42537 -81.29872 107 ft 7 kts 22°
2026-04-25 12:41 28.42570 -81.29852 106 ft 4 kts 22°
2026-04-25 12:42 28.42597 -81.29839 107 ft 4 kts 22°
2026-04-25 12:42 28.42615 -81.29831 108 ft 4 kts 22°
2026-04-25 12:42 28.42625 -81.29826 106 ft 0 kts 22°
2026-04-25 12:44 28.42721 -81.29798 107 ft 19 kts
2026-04-25 12:45 28.42850 -81.29797 107 ft 18 kts
2026-04-25 12:45 28.42934 -81.29731 107 ft 13 kts 28°
2026-04-25 12:45 28.43123 -81.29708 108 ft 15 kts 359°
2026-04-25 12:46 28.43223 -81.29708 108 ft 14 kts 359°
2026-04-25 12:46 28.43316 -81.29709 112 ft 14 kts 359°
2026-04-25 12:46 28.43416 -81.29711 111 ft 18 kts 359°
2026-04-25 12:46 28.43538 -81.29675 106 ft 18 kts 57°
2026-04-25 12:47 28.43492 -81.29586 109 ft 14 kts 167°
2026-04-25 12:47 28.43465 -81.29585 110 ft 0 kts 181°
2026-04-25 12:48 28.43461 -81.29585 110 ft 6 kts 181°
2026-04-25 12:48 28.43185 -81.29583 111 ft 73 kts 179°
2026-04-25 12:48 28.42469 -81.29575 105 ft 131 kts 179°
2026-04-25 12:49 28.41394 -81.29563 262 ft 165 kts 179°
2026-04-25 12:49 28.40244 -81.29528 858 ft 163 kts 177°
2026-04-25 12:49 28.39128 -81.29428 1525 ft 165 kts 174°
2026-04-25 12:49 28.37968 -81.29075 1757 ft 184 kts 158°
2026-04-25 12:50 28.36793 -81.28312 1991 ft 204 kts 148°
2026-04-25 12:50 28.35557 -81.27362 2205 ft 225 kts 145°
2026-04-25 12:50 28.34439 -81.25996 2395 ft 250 kts 120°
2026-04-25 12:50 28.34052 -81.24055 2850 ft 260 kts 84°
2026-04-25 12:51 28.34531 -81.22079 3511 ft 260 kts 69°
2026-04-25 12:51 28.35192 -81.20147 4127 ft 264 kts 68°
2026-04-25 12:51 28.35858 -81.18218 4744 ft 267 kts 68°
2026-04-25 12:51 28.36491 -81.16355 5319 ft 269 kts 69°
2026-04-25 12:52 28.37160 -81.14363 5987 ft 271 kts 69°
2026-04-25 12:52 28.37833 -81.12348 6637 ft 274 kts 69°
2026-04-25 12:52 28.38511 -81.10309 7255 ft 279 kts 68°
2026-04-25 12:52 28.39203 -81.08220 7881 ft 283 kts 68°
2026-04-25 12:53 28.39903 -81.06107 8550 ft 287 kts 68°
2026-04-25 12:53 28.40610 -81.03970 9208 ft 291 kts 68°
2026-04-25 12:53 28.41323 -81.01812 9864 ft 295 kts 68°
2026-04-25 12:53 28.42056 -80.99593 10344 ft 305 kts 68°
2026-04-25 12:54 28.42823 -80.97274 10611 ft 323 kts 68°
2026-04-25 12:54 28.43633 -80.94821 10875 ft 339 kts 68°
2026-04-25 12:54 28.44472 -80.92277 11136 ft 355 kts 68°
2026-04-25 12:54 28.45354 -80.89598 11557 ft 364 kts 68°
2026-04-25 12:55 28.46248 -80.86875 12104 ft 369 kts 68°
2026-04-25 12:55 28.46541 -80.85983 12284 ft 371 kts 68°
2026-04-25 12:55 28.47808 -80.81286 13210 ft 379 kts 79°
2026-04-25 12:55 28.48177 -80.78300 13775 ft 383 kts 82°
2026-04-25 12:56 28.48503 -80.75276 14261 ft 387 kts 82°
2026-04-25 12:56 28.48832 -80.72231 14731 ft 391 kts 81°
2026-04-25 12:56 28.49169 -80.69150 15210 ft 394 kts 81°
2026-04-25 12:56 28.49511 -80.66042 15670 ft 398 kts 81°
2026-04-25 12:57 28.49858 -80.62898 16175 ft 401 kts 81°
2026-04-25 12:57 28.50206 -80.59736 16641 ft 405 kts 81°
2026-04-25 12:57 28.50558 -80.56549 17159 ft 408 kts 81°
2026-04-25 12:57 28.50911 -80.53341 17676 ft 412 kts 81°
2026-04-25 12:58 28.51271 -80.50063 18102 ft 418 kts 81°
2026-04-25 12:58 28.51510 -80.47879 18389 ft 421 kts 81°
2026-04-25 12:58 28.51995 -80.43446 19020 ft 424 kts 81°
2026-04-25 12:58 28.52236 -80.41238 19334 ft 425 kts 81°
2026-04-25 12:59 28.52601 -80.37891 19800 ft 428 kts 81°
2026-04-25 12:59 28.52965 -80.34542 20276 ft 430 kts 81°
2026-04-25 12:59 28.53361 -80.31128 20743 ft 432 kts 78°
2026-04-25 12:59 28.54110 -80.27807 21234 ft 432 kts 67°
2026-04-25 13:00 28.55236 -80.24638 21692 ft 433 kts 64°
2026-04-25 13:00 28.56034 -80.22547 22002 ft 435 kts 64°
2026-04-25 13:00 28.57664 -80.18297 22646 ft 439 kts 64°
2026-04-25 13:00 28.58882 -80.15105 23171 ft 441 kts 64°
2026-04-25 13:01 28.60086 -80.11936 23705 ft 441 kts 64°
2026-04-25 13:01 28.61303 -80.08727 24144 ft 443 kts 64°
2026-04-25 13:01 28.62529 -80.05486 24548 ft 445 kts 65°
2026-04-25 13:01 28.63759 -80.02234 24936 ft 448 kts 65°
2026-04-25 13:02 28.64992 -79.98968 25363 ft 450 kts 65°
2026-04-25 13:02 28.66228 -79.95690 25772 ft 452 kts 65°
2026-04-25 13:02 28.67473 -79.92385 26180 ft 454 kts 65°
2026-04-25 13:02 28.68721 -79.89070 26571 ft 456 kts 65°
2026-04-25 13:03 28.69973 -79.85743 26957 ft 458 kts 65°
2026-04-25 13:03 28.71230 -79.82398 27357 ft 460 kts 65°
2026-04-25 13:03 28.72490 -79.79041 27746 ft 462 kts 65°
2026-04-25 13:03 28.73718 -79.75769 28069 ft 465 kts 65°
2026-04-25 13:04 28.75012 -79.72316 28471 ft 467 kts 65°
2026-04-25 13:04 28.76288 -79.68907 28857 ft 468 kts 65°
2026-04-25 13:04 28.77567 -79.65489 29227 ft 470 kts 65°
2026-04-25 13:04 28.78855 -79.62043 29587 ft 472 kts 65°
2026-04-25 13:05 28.80150 -79.58597 29924 ft 474 kts 64°
2026-04-25 13:05 28.81689 -79.55257 30212 ft 475 kts 56°
2026-04-25 13:05 28.83552 -79.52140 30493 ft 476 kts 53°
2026-04-25 13:05 28.85487 -79.49066 30772 ft 478 kts 52°
2026-04-25 13:06 28.87433 -79.45984 31042 ft 479 kts 52°
2026-04-25 13:06 28.89386 -79.42886 31277 ft 482 kts 53°
2026-04-25 13:06 28.91348 -79.39766 31485 ft 485 kts 53°
2026-04-25 13:06 28.93320 -79.36625 31705 ft 487 kts 53°
2026-04-25 13:07 28.95293 -79.33478 31943 ft 489 kts 53°
2026-04-25 13:07 28.97274 -79.30315 32169 ft 490 kts 53°
2026-04-25 13:07 28.99252 -79.27156 32372 ft 492 kts 53°
2026-04-25 13:07 29.01260 -79.23945 32604 ft 494 kts 53°
2026-04-25 13:08 29.03255 -79.20751 32905 ft 493 kts 53°
2026-04-25 13:08 29.05224 -79.17597 33225 ft 492 kts 53°
2026-04-25 13:08 29.07215 -79.14406 33500 ft 492 kts 53°
2026-04-25 13:08 29.09205 -79.11213 33782 ft 492 kts 53°
2026-04-25 13:09 29.11186 -79.08033 34091 ft 490 kts 53°
2026-04-25 13:09 29.13163 -79.04858 34370 ft 489 kts 53°
2026-04-25 13:09 29.15136 -79.01685 34568 ft 489 kts 53°
2026-04-25 13:09 29.17109 -78.98510 34780 ft 489 kts 53°
2026-04-25 13:10 29.19077 -78.95341 35017 ft 488 kts 53°
2026-04-25 13:10 29.21041 -78.92176 35241 ft 487 kts 52°
2026-04-25 13:10 29.22984 -78.89043 35453 ft 487 kts 52°
2026-04-25 13:10 29.24942 -78.85883 35662 ft 486 kts 52°
2026-04-25 13:11 29.26897 -78.82724 35846 ft 485 kts 52°
2026-04-25 13:11 29.28855 -78.79559 36039 ft 485 kts 52°
2026-04-25 13:11 29.30808 -78.76401 36216 ft 485 kts 52°
2026-04-25 13:11 29.32759 -78.73242 36402 ft 484 kts 52°
2026-04-25 13:12 29.34699 -78.70085 36563 ft 484 kts 53°
2026-04-25 13:12 29.36431 -78.66772 36755 ft 486 kts 61°
2026-04-25 13:12 29.38554 -78.60757 36920 ft 490 kts 68°
2026-04-25 13:13 29.39917 -78.55762 37110 ft 492 kts 75°
2026-04-25 13:13 29.40534 -78.51900 37252 ft 493 kts 78°
2026-04-25 13:13 29.41061 -78.48009 37385 ft 493 kts 79°
2026-04-25 13:13 29.41546 -78.44158 37513 ft 493 kts 79°
2026-04-25 13:14 29.42029 -78.40221 37639 ft 493 kts 79°
2026-04-25 13:14 29.42508 -78.36320 37762 ft 493 kts 79°
2026-04-25 13:14 29.42985 -78.32464 37876 ft 493 kts 79°
2026-04-25 13:14 29.43473 -78.28570 37919 ft 495 kts 79°
2026-04-25 13:15 29.44468 -78.20700 37954 ft 498 kts 79°
2026-04-25 13:15 29.45465 -78.12800 37998 ft 499 kts 79°
2026-04-25 13:16 29.46455 -78.04919 37993 ft 499 kts 79°
2026-04-25 13:16 29.47438 -77.97042 37999 ft 499 kts 79°
2026-04-25 13:17 29.48421 -77.89139 37997 ft 500 kts 79°
2026-04-25 13:17 29.49398 -77.81237 38004 ft 500 kts 79°
2026-04-25 13:18 29.50365 -77.73374 38002 ft 500 kts 79°
2026-04-25 13:18 29.51341 -77.65454 38004 ft 500 kts 79°
2026-04-25 13:19 29.52303 -77.57547 38000 ft 500 kts 80°
2026-04-25 13:19 29.52929 -77.52365 38003 ft 501 kts 80°
2026-04-25 13:20 29.54200 -77.41808 37993 ft 500 kts 80°
2026-04-25 13:20 29.55146 -77.33908 37994 ft 499 kts 80°
2026-04-25 13:21 29.56090 -77.26000 38002 ft 499 kts 80°
2026-04-25 13:21 29.57024 -77.18134 38003 ft 500 kts 81°
2026-04-25 13:22 29.57961 -77.10202 38004 ft 500 kts 81°
2026-04-25 13:23 29.59334 -76.98497 38003 ft 500 kts 81°
2026-04-25 13:23 29.60258 -76.90575 38002 ft 500 kts 81°
2026-04-25 13:24 29.60825 -76.82655 38008 ft 501 kts 86°
2026-04-25 13:24 29.61075 -76.74645 38005 ft 501 kts 87°
2026-04-25 13:25 29.61276 -76.66639 38004 ft 501 kts 88°
2026-04-25 13:25 29.61471 -76.58637 38007 ft 501 kts 88°
2026-04-25 13:26 29.61668 -76.50627 38006 ft 501 kts 88°
2026-04-25 13:26 29.61864 -76.42622 38012 ft 500 kts 88°
2026-04-25 13:27 29.62049 -76.34832 38009 ft 499 kts 88°
2026-04-25 13:27 29.62234 -76.26857 38007 ft 499 kts 88°
2026-04-25 13:28 29.62414 -76.18880 38015 ft 499 kts 88°
2026-04-25 13:28 29.62590 -76.10897 38009 ft 499 kts 88°
2026-04-25 13:29 29.62760 -76.02933 38018 ft 498 kts 88°
2026-04-25 13:29 29.62925 -75.94996 38018 ft 498 kts 88°
2026-04-25 13:30 29.63165 -75.83010 38015 ft 498 kts 89°
2026-04-25 13:31 29.63392 -75.71164 38021 ft 493 kts 89°
2026-04-25 13:31 29.63535 -75.63347 38021 ft 492 kts 89°
2026-04-25 13:32 29.63652 -75.56794 38022 ft 492 kts 89°
2026-04-25 13:32 29.63789 -75.48915 38021 ft 492 kts 89°
2026-04-25 13:33 29.63941 -75.39772 38022 ft 492 kts 89°
2026-04-25 13:33 29.64045 -75.33352 38017 ft 492 kts 89°
2026-04-25 13:34 29.64166 -75.25540 38021 ft 491 kts 89°
2026-04-25 13:34 29.64284 -75.17684 38017 ft 491 kts 89°
2026-04-25 13:35 29.64379 -75.11101 38021 ft 491 kts 89°
2026-04-25 13:35 29.64505 -75.01975 38015 ft 491 kts 90°
2026-04-25 13:36 29.64609 -74.94094 38012 ft 491 kts 90°
2026-04-25 13:36 29.64708 -74.86239 38014 ft 491 kts 90°
2026-04-25 13:37 29.64803 -74.78375 38025 ft 491 kts 90°
2026-04-25 13:37 29.64892 -74.70566 38021 ft 491 kts 90°
2026-04-25 13:38 29.64977 -74.62732 38019 ft 491 kts 90°
2026-04-25 13:38 29.65059 -74.54831 38025 ft 491 kts 90°
2026-04-25 13:39 29.65134 -74.46984 38022 ft 491 kts 90°
2026-04-25 13:39 29.65206 -74.39122 38021 ft 491 kts 90°
2026-04-25 13:40 29.65272 -74.31275 38024 ft 492 kts 90°
2026-04-25 13:40 29.65335 -74.23381 38025 ft 492 kts 90°
2026-04-25 13:41 29.65392 -74.15555 38031 ft 492 kts 90°
2026-04-25 13:41 29.65445 -74.07685 38034 ft 492 kts 90°
2026-04-25 13:42 29.65493 -73.99821 38025 ft 492 kts 90°
2026-04-25 13:42 29.65537 -73.91943 38026 ft 493 kts 90°
2026-04-25 13:43 29.65576 -73.84098 38029 ft 493 kts 90°
2026-04-25 13:43 29.65610 -73.76255 38030 ft 493 kts 90°
2026-04-25 13:44 29.65640 -73.68361 38034 ft 493 kts 90°
2026-04-25 13:44 29.65665 -73.60477 38034 ft 493 kts 90°
2026-04-25 13:45 29.65685 -73.52576 38028 ft 494 kts 90°
2026-04-25 13:45 29.65701 -73.44661 38031 ft 494 kts 90°
2026-04-25 13:46 29.65712 -73.36747 38035 ft 494 kts 90°
2026-04-25 13:46 29.65718 -73.28896 38028 ft 494 kts 90°
2026-04-25 13:47 29.65720 -73.20974 38033 ft 495 kts 90°
2026-04-25 13:47 29.65717 -73.13056 38030 ft 495 kts 90°
2026-04-25 13:48 29.65710 -73.05129 38038 ft 495 kts 91°
2026-04-25 13:48 29.65697 -72.97199 38036 ft 495 kts 91°
2026-04-25 13:49 29.65680 -72.89259 38049 ft 496 kts 91°
2026-04-25 13:49 29.65658 -72.81378 38035 ft 497 kts 91°
2026-04-25 13:50 29.65631 -72.73415 38035 ft 497 kts 91°
2026-04-25 13:50 29.65600 -72.65466 38033 ft 497 kts 91°
2026-04-25 13:51 29.65564 -72.57525 38044 ft 497 kts 91°
2026-04-25 13:51 29.65523 -72.49496 38047 ft 498 kts 91°
2026-04-25 13:52 29.65477 -72.41520 38033 ft 498 kts 91°
2026-04-25 13:52 29.65426 -72.33557 38049 ft 498 kts 91°
2026-04-25 13:53 29.65371 -72.25574 38032 ft 498 kts 91°
2026-04-25 13:53 29.65311 -72.17596 38041 ft 499 kts 91°
2026-04-25 13:54 29.65246 -72.09617 38042 ft 500 kts 91°
2026-04-25 13:54 29.65176 -72.01614 38043 ft 500 kts 91°
2026-04-25 13:55 29.65101 -71.93620 38043 ft 500 kts 91°
2026-04-25 13:55 29.65022 -71.85610 38041 ft 501 kts 91°
2026-04-25 13:56 29.64937 -71.77644 38043 ft 501 kts 91°
2026-04-25 13:56 29.64848 -71.69584 38043 ft 502 kts 91°
2026-04-25 13:57 29.64753 -71.61534 38047 ft 502 kts 91°
2026-04-25 13:57 29.64654 -71.53521 38043 ft 500 kts 91°
2026-04-25 13:58 29.64551 -71.45514 38047 ft 501 kts 91°
2026-04-25 13:58 29.64443 -71.37555 38045 ft 501 kts 91°
2026-04-25 13:59 29.64329 -71.29541 38043 ft 501 kts 91°
2026-04-25 13:59 29.64211 -71.21548 38051 ft 501 kts 91°
2026-04-25 14:00 29.64110 -71.14886 38046 ft 501 kts 91°
2026-04-25 14:00 29.63961 -71.05502 38048 ft 501 kts 91°
2026-04-25 14:01 29.63828 -70.97483 38046 ft 501 kts 91°
2026-04-25 14:01 29.63691 -70.89516 38050 ft 501 kts 91°
2026-04-25 14:02 29.63548 -70.81453 38043 ft 502 kts 91°
2026-04-25 14:02 29.63400 -70.73424 38043 ft 503 kts 91°
2026-04-25 14:03 29.63248 -70.65386 38044 ft 503 kts 91°
2026-04-25 14:03 29.63092 -70.57404 38045 ft 503 kts 91°
2026-04-25 14:04 29.62929 -70.49353 38047 ft 503 kts 92°
2026-04-25 14:04 29.62790 -70.42648 38045 ft 505 kts 92°
2026-04-25 14:05 29.62619 -70.34581 38048 ft 505 kts 92°
2026-04-25 14:05 29.62442 -70.26502 38049 ft 505 kts 92°
2026-04-25 14:06 29.62260 -70.18418 38046 ft 505 kts 92°
2026-04-25 14:06 29.62074 -70.10379 38046 ft 507 kts 92°
2026-04-25 14:07 29.61882 -70.02254 38048 ft 508 kts 92°
2026-04-25 14:07 29.61684 -69.94127 38049 ft 507 kts 92°
2026-04-25 14:08 29.61486 -69.86165 38063 ft 507 kts 92°
2026-04-25 14:08 29.61279 -69.78051 38046 ft 509 kts 92°
2026-04-25 14:09 29.61067 -69.69948 38048 ft 510 kts 92°
2026-04-25 14:09 29.60848 -69.61750 38050 ft 510 kts 92°
2026-04-25 14:10 29.60624 -69.53572 38049 ft 510 kts 92°
2026-04-25 14:10 29.60395 -69.45400 38058 ft 512 kts 92°
2026-04-25 14:11 29.60162 -69.37243 38053 ft 510 kts 92°
2026-04-25 14:11 29.59924 -69.29095 38053 ft 509 kts 92°
2026-04-25 14:12 29.59680 -69.20900 38054 ft 509 kts 92°
2026-04-25 14:12 29.59434 -69.12795 38052 ft 511 kts 92°
2026-04-25 14:13 29.59180 -69.04610 38051 ft 513 kts 92°
2026-04-25 14:13 29.58920 -68.96395 38057 ft 513 kts 92°
2026-04-25 14:14 29.58655 -68.88183 38054 ft 513 kts 92°
2026-04-25 14:14 29.58386 -68.79994 38054 ft 515 kts 93°
2026-04-25 14:15 29.58111 -68.71808 38053 ft 517 kts 93°
2026-04-25 14:15 29.57828 -68.63511 38054 ft 517 kts 93°
2026-04-25 14:16 29.57541 -68.55257 38051 ft 517 kts 93°
2026-04-25 14:16 29.57252 -68.47055 38050 ft 518 kts 93°
2026-04-25 14:17 29.56953 -68.38761 38055 ft 520 kts 93°
2026-04-25 14:17 29.56651 -68.30511 38056 ft 520 kts 93°
2026-04-25 14:18 29.56342 -68.22214 38056 ft 520 kts 93°
2026-04-25 14:18 29.56028 -68.13895 38056 ft 521 kts 94°
2026-04-25 14:19 29.55707 -68.05557 38056 ft 523 kts 94°
2026-04-25 14:19 29.55380 -67.97200 38055 ft 523 kts 94°
2026-04-25 14:20 29.55049 -67.88886 38050 ft 523 kts 94°
2026-04-25 14:20 29.54710 -67.80483 38053 ft 523 kts 94°
2026-04-25 14:21 29.54369 -67.72146 38057 ft 523 kts 94°
2026-04-25 14:21 29.54023 -67.63847 38053 ft 523 kts 94°
2026-04-25 14:22 29.53671 -67.55498 38053 ft 523 kts 94°
2026-04-25 14:22 29.53313 -67.47153 38080 ft 524 kts 94°
2026-04-25 14:23 29.52948 -67.38777 38056 ft 524 kts 94°
2026-04-25 14:23 29.52581 -67.30439 38054 ft 523 kts 94°
2026-04-25 14:24 29.52207 -67.22087 38052 ft 523 kts 94°
2026-04-25 14:24 29.51828 -67.13740 38055 ft 525 kts 94°
2026-04-25 14:25 29.51442 -67.05354 38052 ft 525 kts 94°
2026-04-25 14:25 29.51051 -66.96958 38051 ft 525 kts 94°
2026-04-25 14:26 29.50654 -66.88570 38047 ft 525 kts 95°
2026-04-25 14:26 29.50253 -66.80179 38053 ft 526 kts 95°
2026-04-25 14:27 29.49845 -66.71792 38053 ft 526 kts 95°
2026-04-25 14:27 29.49433 -66.63407 38048 ft 526 kts 95°
2026-04-25 14:28 29.49018 -66.55063 38043 ft 526 kts 95°
2026-04-25 14:28 29.48595 -66.46689 38049 ft 526 kts 95°
2026-04-25 14:29 29.48167 -66.38295 38051 ft 526 kts 95°
2026-04-25 14:29 29.47734 -66.29927 38053 ft 526 kts 95°
2026-04-25 14:30 29.47296 -66.21541 38054 ft 526 kts 95°
2026-04-25 14:30 29.46627 -66.08961 38048 ft 526 kts 95°
2026-04-25 14:31 29.46176 -66.00581 38047 ft 526 kts 95°
2026-04-25 14:31 29.45722 -65.92256 38057 ft 526 kts 95°
2026-04-25 14:32 29.45259 -65.83866 38054 ft 527 kts 95°
2026-04-25 14:32 29.44790 -65.75454 38054 ft 527 kts 95°
2026-04-25 14:33 29.44316 -65.67057 38050 ft 527 kts 95°
2026-04-25 14:33 29.43837 -65.58644 38043 ft 528 kts 96°
2026-04-25 14:34 29.43348 -65.50197 38069 ft 532 kts 96°
2026-04-25 14:34 29.42857 -65.41792 38053 ft 529 kts 96°
2026-04-25 14:35 29.42362 -65.33375 38049 ft 528 kts 96°
2026-04-25 14:35 29.41861 -65.24970 38051 ft 529 kts 97°
2026-04-25 14:36 29.41351 -65.16516 38050 ft 532 kts 97°
2026-04-25 14:36 29.40922 -65.09461 38046 ft 533 kts 97°
2026-04-25 14:37 29.40402 -65.00985 38050 ft 532 kts 97°
2026-04-25 14:37 29.39877 -64.92492 38054 ft 535 kts 98°
2026-04-25 14:38 29.39338 -64.83941 38045 ft 540 kts 98°
2026-04-25 14:38 29.38793 -64.75339 38046 ft 541 kts 98°
2026-04-25 14:39 29.38244 -64.66747 38045 ft 540 kts 98°
2026-04-25 14:39 29.37690 -64.58155 38046 ft 540 kts 98°
2026-04-25 14:40 29.37133 -64.49617 38046 ft 540 kts 98°
2026-04-25 14:40 29.36566 -64.41026 38048 ft 540 kts 98°
2026-04-25 14:41 29.35995 -64.32444 38050 ft 541 kts 99°
2026-04-25 14:41 29.35411 -64.23800 38047 ft 546 kts 99°
2026-04-25 14:42 29.34918 -64.16547 38046 ft 550 kts 99°
2026-04-25 14:42 29.34220 -64.06318 38048 ft 550 kts 99°
2026-04-25 14:43 29.33619 -63.97623 38050 ft 553 kts 101°
2026-04-25 14:43 29.32999 -63.88798 38046 ft 558 kts 101°
2026-04-25 14:44 29.32374 -63.79921 38045 ft 558 kts 101°
2026-04-25 14:44 29.31745 -63.71048 38045 ft 558 kts 102°
2026-04-25 14:45 29.31103 -63.62153 38082 ft 562 kts 102°
2026-04-25 14:45 29.30455 -63.53219 38045 ft 561 kts 101°
2026-04-25 14:46 29.29806 -63.44313 38045 ft 560 kts 101°
2026-04-25 14:46 29.29150 -63.35410 38046 ft 563 kts 102°
2026-04-25 14:47 29.28593 -63.27967 38045 ft 564 kts 102°
2026-04-25 14:47 29.27807 -63.17503 38045 ft 564 kts 102°
2026-04-25 14:48 29.27128 -63.08546 38045 ft 564 kts 103°
2026-04-25 14:48 29.26441 -62.99590 38047 ft 565 kts 103°
2026-04-25 14:49 29.25750 -62.90640 38048 ft 565 kts 103°
2026-04-25 14:49 29.25056 -62.81732 38024 ft 565 kts 103°
2026-04-25 14:50 29.24348 -62.72747 38042 ft 568 kts 103°
2026-04-25 14:50 29.23632 -62.63714 38045 ft 568 kts 103°
2026-04-25 14:51 29.22913 -62.54704 38045 ft 568 kts 103°
2026-04-25 14:51 29.22186 -62.45689 38045 ft 569 kts 103°
2026-04-25 14:52 29.21455 -62.36709 38045 ft 570 kts 103°
2026-04-25 14:52 29.20834 -62.29126 38045 ft 570 kts 103°
2026-04-25 14:53 29.19968 -62.18638 38044 ft 570 kts 103°
2026-04-25 14:53 29.19212 -62.09587 38046 ft 571 kts 103°
2026-04-25 14:54 29.18448 -62.00493 38041 ft 571 kts 103°
2026-04-25 14:54 29.17683 -61.91473 38042 ft 571 kts 103°
2026-04-25 14:55 29.16909 -61.82430 38041 ft 573 kts 103°
2026-04-25 14:55 29.16127 -61.73349 38044 ft 574 kts 103°
2026-04-25 14:56 29.15337 -61.64240 38042 ft 574 kts 103°
2026-04-25 14:56 29.14543 -61.55144 38042 ft 574 kts 103°
2026-04-25 14:57 29.13742 -61.46063 38043 ft 574 kts 103°
2026-04-25 14:57 29.12941 -61.37046 38040 ft 574 kts 103°
2026-04-25 14:58 29.12126 -61.27958 38041 ft 575 kts 103°
2026-04-25 14:58 29.11300 -61.18826 38039 ft 577 kts 103°
2026-04-25 14:59 29.10471 -61.09699 38042 ft 577 kts 103°
2026-04-25 14:59 29.09634 -61.00555 38041 ft 578 kts 103°
2026-04-25 15:00 29.08787 -60.91387 38043 ft 579 kts 103°
2026-04-25 15:00 29.07932 -60.82197 38042 ft 579 kts 103°
2026-04-25 15:01 29.07080 -60.73097 38032 ft 579 kts 103°
2026-04-25 15:01 29.06215 -60.63935 38037 ft 579 kts 103°
2026-04-25 15:02 29.05344 -60.54776 38040 ft 579 kts 103°
2026-04-25 15:02 29.04467 -60.45628 38021 ft 579 kts 103°
2026-04-25 15:03 29.03586 -60.36486 38044 ft 577 kts 103°
2026-04-25 15:03 29.02700 -60.27371 38042 ft 576 kts 103°
2026-04-25 15:04 29.01809 -60.18268 38028 ft 576 kts 103°
2026-04-25 15:04 29.00912 -60.09178 38042 ft 576 kts 103°
2026-04-25 15:05 29.00120 -60.00060 38046 ft 581 kts 96°
2026-04-25 15:06 29.00107 -59.86148 38035 ft 586 kts 94°
2026-04-25 15:06 29.00218 -59.76842 38025 ft 585 kts 94°
2026-04-25 15:07 29.00322 -59.67544 38048 ft 585 kts 94°
2026-04-25 15:07 29.00405 -59.58302 38026 ft 584 kts 94°
2026-04-25 15:08 29.00475 -59.49025 38023 ft 584 kts 94°
2026-04-25 15:08 29.00539 -59.39738 38036 ft 584 kts 94°
2026-04-25 15:09 29.00597 -59.30461 38027 ft 584 kts 94°
2026-04-25 15:09 29.00673 -59.16565 38027 ft 583 kts 94°
2026-04-25 15:10 29.00715 -59.07295 38035 ft 583 kts 94°
2026-04-25 15:11 29.00766 -58.93399 38034 ft 584 kts 94°
2026-04-25 15:11 29.00793 -58.84151 38034 ft 585 kts 94°
2026-04-25 15:12 29.00821 -58.70224 38035 ft 584 kts 94°
2026-04-25 15:12 29.00829 -58.64005 38026 ft 584 kts 94°
2026-04-25 15:13 29.00836 -58.46986 38008 ft 584 kts 94°
2026-04-25 15:14 29.00831 -58.37709 38028 ft 584 kts 94°
2026-04-25 15:14 29.00819 -58.28414 38024 ft 584 kts 94°
2026-04-25 15:15 29.00805 -58.20710 38019 ft 584 kts 94°
2026-04-25 15:15 29.00781 -58.11398 38030 ft 585 kts 94°
2026-04-25 15:16 29.00751 -58.02100 38032 ft 585 kts 94°
2026-04-25 15:16 29.00694 -57.88144 38013 ft 586 kts 94°
2026-04-25 15:17 29.00623 -57.74156 38027 ft 586 kts 94°
2026-04-25 15:18 29.00568 -57.64845 38005 ft 586 kts 94°
2026-04-25 15:18 29.00472 -57.50856 38018 ft 587 kts 94°
2026-04-25 15:19 29.00413 -57.43089 38024 ft 587 kts 94°
2026-04-25 15:19 29.00323 -57.32249 38028 ft 587 kts 94°
2026-04-25 15:20 29.00238 -57.22905 38020 ft 587 kts 94°
2026-04-25 15:20 29.00147 -57.13562 38021 ft 587 kts 94°
2026-04-25 15:21 29.00049 -57.04224 38022 ft 588 kts 94°
2026-04-25 15:21 29.00004 -56.94855 38020 ft 589 kts 92°
2026-04-25 15:22 29.00262 -56.85482 38016 ft 590 kts 90°
2026-04-25 15:22 29.00575 -56.76089 38020 ft 591 kts 91°
2026-04-25 15:23 29.00834 -56.66703 38019 ft 591 kts 91°
2026-04-25 15:23 29.01050 -56.57393 37996 ft 591 kts 91°
2026-04-25 15:24 29.01256 -56.47991 38015 ft 591 kts 91°
2026-04-25 15:24 29.01425 -56.40112 38013 ft 591 kts 91°
2026-04-25 15:25 29.01654 -56.29197 38007 ft 591 kts 91°
2026-04-25 15:25 29.01846 -56.19807 38015 ft 591 kts 91°
2026-04-25 15:26 29.02031 -56.10380 38019 ft 591 kts 91°
2026-04-25 15:26 29.02209 -56.00994 38017 ft 591 kts 91°
2026-04-25 15:27 29.02380 -55.91648 38010 ft 591 kts 91°
2026-04-25 15:28 29.02625 -55.77550 38002 ft 591 kts 91°
2026-04-25 15:28 29.02780 -55.68143 38017 ft 592 kts 91°
2026-04-25 15:29 29.02929 -55.58729 38004 ft 592 kts 91°
2026-04-25 15:29 29.03071 -55.49322 38021 ft 592 kts 91°
2026-04-25 15:30 29.03206 -55.39973 38009 ft 592 kts 91°
2026-04-25 15:30 29.03335 -55.30550 38012 ft 592 kts 91°
2026-04-25 15:31 29.03458 -55.21110 38011 ft 593 kts 91°
2026-04-25 15:31 29.03573 -55.11751 38008 ft 593 kts 91°
2026-04-25 15:32 29.03682 -55.02386 38009 ft 593 kts 91°
2026-04-25 15:32 29.03786 -54.92952 38014 ft 594 kts 91°
2026-04-25 15:33 29.03928 -54.78779 38009 ft 594 kts 91°
2026-04-25 15:33 29.04015 -54.69333 38013 ft 594 kts 91°
2026-04-25 15:34 29.04095 -54.59952 38016 ft 593 kts 91°
2026-04-25 15:34 29.04157 -54.52039 38016 ft 593 kts 91°
2026-04-25 15:35 29.04266 -54.36364 38011 ft 594 kts 91°
2026-04-25 15:36 29.04349 -54.22258 37999 ft 594 kts 91°
2026-04-25 15:36 29.04396 -54.12792 38011 ft 595 kts 91°
2026-04-25 15:37 29.04437 -54.03326 38010 ft 595 kts 91°
2026-04-25 15:37 29.04471 -53.93852 38017 ft 596 kts 91°
2026-04-25 15:38 29.04499 -53.84453 38007 ft 595 kts 92°
2026-04-25 15:38 29.04520 -53.75008 38007 ft 594 kts 92°
2026-04-25 15:39 29.04533 -53.65538 38003 ft 595 kts 92°
2026-04-25 15:39 29.04541 -53.56071 38006 ft 596 kts 92°
2026-04-25 15:40 29.04542 -53.49793 38007 ft 596 kts 92°
2026-04-25 15:40 29.04536 -53.37113 38007 ft 596 kts 92°
2026-04-25 15:41 29.04524 -53.27772 38007 ft 596 kts 92°
2026-04-25 15:41 29.04505 -53.18300 38015 ft 596 kts 92°
2026-04-25 15:42 29.04480 -53.08890 38007 ft 595 kts 92°
2026-04-25 15:42 29.04448 -52.99419 37990 ft 595 kts 92°
2026-04-25 15:43 29.04409 -52.89931 38004 ft 596 kts 92°
2026-04-25 15:43 29.04363 -52.80468 38007 ft 596 kts 92°
2026-04-25 15:44 29.04311 -52.70978 38005 ft 597 kts 92°
2026-04-25 15:44 29.04252 -52.61490 38006 ft 597 kts 92°
2026-04-25 15:45 29.04186 -52.51990 37992 ft 597 kts 92°
2026-04-25 15:45 29.04139 -52.45700 38019 ft 598 kts 92°
2026-04-25 15:46 29.04036 -52.33049 38009 ft 596 kts 92°
2026-04-25 15:46 29.03950 -52.23570 38003 ft 597 kts 92°
2026-04-25 15:47 29.03858 -52.14114 38007 ft 598 kts 92°
2026-04-25 15:47 29.03759 -52.04601 38008 ft 598 kts 92°
2026-04-25 15:48 29.03653 -51.95077 38007 ft 599 kts 92°
2026-04-25 15:48 29.03540 -51.85553 38007 ft 599 kts 92°
2026-04-25 15:49 29.03421 -51.76033 38046 ft 600 kts 92°
2026-04-25 15:49 29.03295 -51.66497 38009 ft 598 kts 92°
2026-04-25 15:50 29.03163 -51.56988 37989 ft 598 kts 92°
2026-04-25 15:50 29.03023 -51.47519 38010 ft 599 kts 92°
2026-04-25 15:51 29.02926 -51.41147 38010 ft 600 kts 92°
2026-04-25 15:51 29.02724 -51.28449 38009 ft 600 kts 92°
2026-04-25 15:52 29.02564 -51.18911 38009 ft 601 kts 92°
2026-04-25 15:52 29.02397 -51.09370 38009 ft 601 kts 93°
2026-04-25 15:53 29.02253 -51.01419 38014 ft 600 kts 93°
2026-04-25 15:53 29.02045 -50.90356 38015 ft 598 kts 93°
2026-04-25 15:54 29.01858 -50.80820 38015 ft 599 kts 93°
2026-04-25 15:54 29.01697 -50.72892 38015 ft 600 kts 93°
2026-04-25 15:55 29.01498 -50.63350 38012 ft 600 kts 93°
2026-04-25 15:55 29.01292 -50.53813 38018 ft 601 kts 93°
2026-04-25 15:56 29.01079 -50.44264 38018 ft 601 kts 93°
2026-04-25 15:56 29.00859 -50.34701 38041 ft 603 kts 93°
2026-04-25 15:57 29.00633 -50.25147 38020 ft 601 kts 93°
2026-04-25 15:57 29.00401 -50.15644 38017 ft 601 kts 93°
2026-04-25 15:58 29.00160 -50.06074 38020 ft 602 kts 93°
2026-04-25 15:58 28.99937 -49.96506 38007 ft 603 kts 91°
2026-04-25 15:59 29.00078 -49.86914 38021 ft 603 kts 89°
2026-04-25 15:59 29.00354 -49.77339 38020 ft 603 kts 89°
2026-04-25 16:00 29.00539 -49.69370 38018 ft 603 kts 89°
2026-04-25 16:00 29.00727 -49.58198 38024 ft 604 kts 90°
2026-04-25 16:01 29.00863 -49.48576 38225 ft 605 kts 90°
2026-04-25 16:01 29.00930 -49.43764 38333 ft 606 kts 90°
2026-04-25 16:01 29.00997 -49.38945 38457 ft 606 kts 90°
2026-04-25 16:02 29.01063 -49.34130 38585 ft 606 kts 90°
2026-04-25 16:02 29.01127 -49.29304 38677 ft 607 kts 90°
2026-04-25 16:02 29.01253 -49.19631 38883 ft 607 kts 90°
2026-04-25 16:03 29.01313 -49.14813 39012 ft 607 kts 90°
2026-04-25 16:03 29.01371 -49.09989 39031 ft 607 kts 90°
2026-04-25 16:03 29.01482 -49.00342 39025 ft 605 kts 90°
2026-04-25 16:04 29.01585 -48.90783 39026 ft 605 kts 90°
2026-04-25 16:04 29.01682 -48.81186 39029 ft 605 kts 90°
2026-04-25 16:05 29.01772 -48.71535 39032 ft 605 kts 90°
2026-04-25 16:06 29.01894 -48.57132 39026 ft 605 kts 90°
2026-04-25 16:06 29.01966 -48.47521 39039 ft 604 kts 90°
2026-04-25 16:07 29.02032 -48.37892 39034 ft 604 kts 90°
2026-04-25 16:07 29.02091 -48.28291 39039 ft 604 kts 90°
2026-04-25 16:08 29.02144 -48.18685 39037 ft 605 kts 90°
2026-04-25 16:08 29.02189 -48.09111 39039 ft 605 kts 90°
2026-04-25 16:09 29.02228 -47.99500 39025 ft 605 kts 90°
2026-04-25 16:09 29.02259 -47.89871 39046 ft 605 kts 90°
2026-04-25 16:10 29.02284 -47.80238 39041 ft 605 kts 90°
2026-04-25 16:10 29.02303 -47.70664 39045 ft 605 kts 90°
2026-04-25 16:11 29.02314 -47.61055 39046 ft 605 kts 90°
2026-04-25 16:11 29.02318 -47.51448 39047 ft 605 kts 90°
2026-04-25 16:12 29.02316 -47.41802 39072 ft 605 kts 90°
2026-04-25 16:12 29.02306 -47.32253 39049 ft 604 kts 90°
2026-04-25 16:13 29.02290 -47.22591 39051 ft 604 kts 90°
2026-04-25 16:13 29.02268 -47.13050 39048 ft 604 kts 90°
2026-04-25 16:14 29.02238 -47.03447 39056 ft 605 kts 90°
2026-04-25 16:14 29.02201 -46.93828 39053 ft 604 kts 90°
2026-04-25 16:15 29.02158 -46.84237 39063 ft 603 kts 90°
2026-04-25 16:15 29.02108 -46.74654 39058 ft 602 kts 90°
2026-04-25 16:16 29.02051 -46.65145 39056 ft 602 kts 90°
2026-04-25 16:16 29.01988 -46.55569 39047 ft 602 kts 90°
2026-04-25 16:17 29.01917 -46.45998 39057 ft 602 kts 90°
2026-04-25 16:17 29.01840 -46.36430 39055 ft 602 kts 90°
2026-04-25 16:18 29.01756 -46.26829 39057 ft 602 kts 90°
2026-04-25 16:18 29.01665 -46.17255 39065 ft 602 kts 90°
2026-04-25 16:19 29.01568 -46.07697 39063 ft 602 kts 90°
2026-04-25 16:19 29.01464 -45.98123 39061 ft 602 kts 90°
2026-04-25 16:20 29.01296 -45.83834 39070 ft 602 kts 90°
2026-04-25 16:21 29.01111 -45.69472 39070 ft 602 kts 90°
2026-04-25 16:21 29.00980 -45.59916 39067 ft 602 kts 90°
2026-04-25 16:22 29.00842 -45.50387 39069 ft 602 kts 90°
2026-04-25 16:22 29.00698 -45.40832 39072 ft 602 kts 90°
2026-04-25 16:23 29.00546 -45.31253 39074 ft 602 kts 90°
2026-04-25 16:23 29.00388 -45.21702 39077 ft 601 kts 90°
2026-04-25 16:24 29.00224 -45.12216 39073 ft 601 kts 90°
2026-04-25 16:24 28.99958 -45.02659 39076 ft 601 kts 97°
2026-04-25 16:24 28.99174 -44.97984 39075 ft 598 kts 109°
2026-04-25 16:25 28.97933 -44.93455 39075 ft 595 kts 111°
2026-04-25 16:25 28.95165 -44.84556 39078 ft 593 kts 114°
2026-04-25 16:26 28.92268 -44.75726 39082 ft 594 kts 114°
2026-04-25 16:26 28.89378 -44.66887 39080 ft 594 kts 113°
2026-04-25 16:27 28.86513 -44.58039 39086 ft 594 kts 113°
2026-04-25 16:27 28.83654 -44.49190 39082 ft 594 kts 113°
2026-04-25 16:28 28.80803 -44.40392 39089 ft 594 kts 113°
2026-04-25 16:28 28.77927 -44.31546 39083 ft 595 kts 113°
2026-04-25 16:29 28.75043 -44.22700 39082 ft 595 kts 113°
2026-04-25 16:29 28.72153 -44.13862 39086 ft 595 kts 113°
2026-04-25 16:30 28.69257 -44.05025 39088 ft 595 kts 113°
2026-04-25 16:30 28.66357 -43.96198 39080 ft 595 kts 113°
2026-04-25 16:31 28.63445 -43.87358 39088 ft 595 kts 113°
2026-04-25 16:31 28.60553 -43.78599 39094 ft 595 kts 113°
2026-04-25 16:32 28.58107 -43.71210 39088 ft 596 kts 113°
2026-04-25 16:32 28.54706 -43.60957 39096 ft 595 kts 113°
2026-04-25 16:33 28.52270 -43.53634 39091 ft 595 kts 113°
2026-04-25 16:33 28.49332 -43.44824 39090 ft 596 kts 113°
2026-04-25 16:34 28.46387 -43.36012 39090 ft 596 kts 113°
2026-04-25 16:34 28.43436 -43.27205 39093 ft 596 kts 113°
2026-04-25 16:35 28.40483 -43.18413 39096 ft 596 kts 113°
2026-04-25 16:35 28.37514 -43.09595 39068 ft 596 kts 114°
2026-04-25 16:36 28.34547 -43.00805 39105 ft 595 kts 113°
2026-04-25 16:36 28.31601 -42.92100 39098 ft 596 kts 113°
2026-04-25 16:37 28.28615 -42.83296 39097 ft 596 kts 114°
2026-04-25 16:37 28.25628 -42.74513 39095 ft 596 kts 114°
2026-04-25 16:38 28.22654 -42.65785 39101 ft 595 kts 114°
2026-04-25 16:38 28.19659 -42.57022 39106 ft 596 kts 113°
2026-04-25 16:39 28.16650 -42.48237 39101 ft 596 kts 113°
2026-04-25 16:39 28.13642 -42.39476 39106 ft 596 kts 113°
2026-04-25 16:40 28.10626 -42.30714 39105 ft 597 kts 113°
2026-04-25 16:40 28.07602 -42.21947 39105 ft 597 kts 113°
2026-04-25 16:41 28.04592 -42.13244 39103 ft 597 kts 113°
2026-04-25 16:41 27.99938 -42.00171 39108 ft 594 kts 121°
2026-04-25 16:42 27.96083 -41.91902 39106 ft 593 kts 122°
2026-04-25 16:42 27.92080 -41.83727 39100 ft 593 kts 123°
2026-04-25 16:43 27.88051 -41.75582 39115 ft 593 kts 122°
2026-04-25 16:43 27.84028 -41.67431 39107 ft 594 kts 122°
2026-04-25 16:44 27.80010 -41.59276 39111 ft 593 kts 122°
2026-04-25 16:44 27.75995 -41.51137 39112 ft 594 kts 122°
2026-04-25 16:45 27.71990 -41.43037 39106 ft 594 kts 122°
2026-04-25 16:45 27.67953 -41.34887 39107 ft 594 kts 123°
2026-04-25 16:46 27.63934 -41.26791 39117 ft 594 kts 122°
2026-04-25 16:46 27.60543 -41.19973 39117 ft 595 kts 122°
2026-04-25 16:47 27.55835 -41.10522 39100 ft 594 kts 123°
2026-04-25 16:47 27.51782 -41.02402 39108 ft 593 kts 123°
2026-04-25 16:48 27.47727 -40.94295 39110 ft 593 kts 123°
2026-04-25 16:48 27.43695 -40.86251 39085 ft 594 kts 123°
2026-04-25 16:49 27.39629 -40.78153 39108 ft 593 kts 123°
2026-04-25 16:49 27.35571 -40.70083 39108 ft 593 kts 123°
2026-04-25 16:50 27.31490 -40.61987 39108 ft 594 kts 123°
2026-04-25 16:50 27.27405 -40.53896 39106 ft 594 kts 123°
2026-04-25 16:51 27.23321 -40.45821 39114 ft 593 kts 123°
2026-04-25 16:51 27.19924 -40.39120 39110 ft 594 kts 123°
2026-04-25 16:52 27.15138 -40.29693 39106 ft 594 kts 123°
2026-04-25 16:52 27.11069 -40.21694 39118 ft 593 kts 123°
2026-04-25 16:53 27.04905 -40.09606 39113 ft 595 kts 123°
2026-04-25 16:54 27.00792 -40.01557 39111 ft 594 kts 123°
2026-04-25 16:54 26.96776 -39.93462 39108 ft 595 kts 120°
2026-04-25 16:55 26.92978 -39.85213 39107 ft 596 kts 119°
2026-04-25 16:55 26.89175 -39.76931 39112 ft 596 kts 120°
2026-04-25 16:56 26.85329 -39.68695 39107 ft 598 kts 120°
2026-04-25 16:56 26.81439 -39.60441 39107 ft 598 kts 120°
2026-04-25 16:57 26.77565 -39.52244 39109 ft 598 kts 120°
2026-04-25 16:57 26.73663 -39.43996 39104 ft 599 kts 120°
2026-04-25 16:58 26.69762 -39.35760 39105 ft 597 kts 120°
2026-04-25 16:58 26.65857 -39.27532 39105 ft 599 kts 120°
2026-04-25 16:59 26.61942 -39.19300 39102 ft 600 kts 120°
2026-04-25 16:59 26.58054 -39.11138 39118 ft 597 kts 120°
2026-04-25 17:00 26.54142 -39.02942 39105 ft 599 kts 120°
2026-04-25 17:00 26.50213 -38.94727 39105 ft 600 kts 120°
2026-04-25 17:01 26.46276 -38.86508 39095 ft 599 kts 120°
2026-04-25 17:01 26.42354 -38.78338 39103 ft 596 kts 120°
2026-04-25 17:02 26.38436 -38.70190 39103 ft 596 kts 120°
2026-04-25 17:02 26.34509 -38.62041 39106 ft 597 kts 120°
2026-04-25 17:03 26.30567 -38.53877 39098 ft 597 kts 120°
2026-04-25 17:03 26.26658 -38.45792 39103 ft 595 kts 120°
2026-04-25 17:04 26.22718 -38.37658 39104 ft 596 kts 121°
2026-04-25 17:04 26.18775 -38.29535 39077 ft 597 kts 121°
2026-04-25 17:05 26.14827 -38.21415 39100 ft 594 kts 121°
2026-04-25 17:05 26.08934 -38.09324 39102 ft 596 kts 121°
2026-04-25 17:06 26.04972 -38.01214 39102 ft 596 kts 121°
2026-04-25 17:06 26.01012 -37.93120 39110 ft 595 kts 121°
2026-04-25 17:07 25.97049 -37.85035 39102 ft 595 kts 121°
2026-04-25 17:07 25.93072 -37.76940 39103 ft 596 kts 121°
2026-04-25 17:08 25.89093 -37.68853 39108 ft 596 kts 121°
2026-04-25 17:08 25.85119 -37.60790 39097 ft 594 kts 121°
2026-04-25 17:09 25.81175 -37.52800 39097 ft 593 kts 121°
2026-04-25 17:09 25.77194 -37.44752 39108 ft 594 kts 121°
2026-04-25 17:10 25.73196 -37.36688 39078 ft 596 kts 121°
2026-04-25 17:10 25.69878 -37.30002 39106 ft 594 kts 121°
2026-04-25 17:11 25.65892 -37.21982 39102 ft 593 kts 121°
2026-04-25 17:11 25.61875 -37.13918 39102 ft 594 kts 121°
2026-04-25 17:12 25.57871 -37.05895 39080 ft 594 kts 121°
2026-04-25 17:12 25.53887 -36.97922 39110 ft 593 kts 121°
2026-04-25 17:13 25.50562 -36.91279 39105 ft 593 kts 121°
2026-04-25 17:13 25.45883 -36.81950 39103 ft 593 kts 121°
2026-04-25 17:14 25.41868 -36.73960 39121 ft 593 kts 121°
2026-04-25 17:14 25.37844 -36.65965 39105 ft 596 kts 121°
2026-04-25 17:15 25.33798 -36.57940 39107 ft 596 kts 121°
2026-04-25 17:15 25.29780 -36.49984 39107 ft 596 kts 121°
2026-04-25 17:16 25.25735 -36.41989 39102 ft 596 kts 121°
2026-04-25 17:16 25.21687 -36.33998 39111 ft 593 kts 121°
2026-04-25 17:17 25.17651 -36.26049 39117 ft 592 kts 121°
2026-04-25 17:17 25.13612 -36.18110 39099 ft 595 kts 121°
2026-04-25 17:18 25.09584 -36.10204 39097 ft 595 kts 121°
2026-04-25 17:18 25.05537 -36.02270 39110 ft 593 kts 121°
2026-04-25 17:19 25.01478 -35.94329 39114 ft 593 kts 121°
2026-04-25 17:19 24.97424 -35.86414 39111 ft 594 kts 121°
2026-04-25 17:20 24.93362 -35.78493 39079 ft 594 kts 122°
2026-04-25 17:20 24.89292 -35.70570 39114 ft 593 kts 122°
2026-04-25 17:21 24.85223 -35.62664 39109 ft 593 kts 122°
2026-04-25 17:21 24.81169 -35.54799 39112 ft 593 kts 122°
2026-04-25 17:22 24.77755 -35.48187 39121 ft 593 kts 122°
2026-04-25 17:22 24.72998 -35.38988 39110 ft 593 kts 122°
2026-04-25 17:23 24.68911 -35.31100 39111 ft 592 kts 122°
2026-04-25 17:23 24.64826 -35.23228 39124 ft 593 kts 122°
2026-04-25 17:24 24.60751 -35.15388 39111 ft 594 kts 122°
2026-04-25 17:24 24.56627 -35.07467 39113 ft 592 kts 122°
2026-04-25 17:25 24.52532 -34.99615 39113 ft 592 kts 122°
2026-04-25 17:25 24.48426 -34.91756 39113 ft 592 kts 122°
2026-04-25 17:26 24.44324 -34.83916 39116 ft 593 kts 122°
2026-04-25 17:26 24.40197 -34.76042 39114 ft 592 kts 122°
2026-04-25 17:27 24.36088 -34.68214 39117 ft 592 kts 122°
2026-04-25 17:27 24.33339 -34.62984 39118 ft 592 kts 122°
2026-04-25 17:28 24.27843 -34.52547 39118 ft 592 kts 122°
2026-04-25 17:28 24.23717 -34.44724 39117 ft 592 kts 122°
2026-04-25 17:29 24.19596 -34.36925 39119 ft 591 kts 122°
2026-04-25 17:29 24.15497 -34.29180 39116 ft 591 kts 122°
2026-04-25 17:30 24.11371 -34.21396 39133 ft 591 kts 122°
2026-04-25 17:30 24.07250 -34.13634 39096 ft 592 kts 122°
2026-04-25 17:31 24.03136 -34.05898 39115 ft 590 kts 122°
2026-04-25 17:31 23.98998 -33.98138 39120 ft 590 kts 123°
2026-04-25 17:32 23.94683 -33.90507 39116 ft 589 kts 125°
2026-04-25 17:32 23.90278 -33.82965 39118 ft 589 kts 125°
2026-04-25 17:33 23.85891 -33.75408 39110 ft 588 kts 125°
2026-04-25 17:33 23.81534 -33.67846 39127 ft 587 kts 124°
2026-04-25 17:34 23.77212 -33.60338 39126 ft 588 kts 124°
2026-04-25 17:34 23.72849 -33.52773 39118 ft 588 kts 125°
2026-04-25 17:35 23.68484 -33.45219 39119 ft 588 kts 125°
2026-04-25 17:35 23.64114 -33.37669 39125 ft 588 kts 125°
2026-04-25 17:36 23.59730 -33.30108 39118 ft 589 kts 125°
2026-04-25 17:36 23.55379 -33.22612 39118 ft 589 kts 125°
2026-04-25 17:37 23.50983 -33.15052 39116 ft 589 kts 125°
2026-04-25 17:37 23.46598 -33.07520 39119 ft 588 kts 125°
2026-04-25 17:38 23.43661 -33.02482 39117 ft 587 kts 125°
2026-04-25 17:38 23.37847 -32.92526 39119 ft 587 kts 125°
2026-04-25 17:39 23.33452 -32.85012 39117 ft 588 kts 125°
2026-04-25 17:39 23.29052 -32.77500 39114 ft 587 kts 125°
2026-04-25 17:40 23.24650 -32.69995 39115 ft 586 kts 125°
2026-04-25 17:40 23.20256 -32.62515 39116 ft 586 kts 125°
2026-04-25 17:41 23.15883 -32.55084 39112 ft 587 kts 125°
2026-04-25 17:41 23.11477 -32.47607 39102 ft 587 kts 125°
2026-04-25 17:42 23.07078 -32.40150 39125 ft 585 kts 125°
2026-04-25 17:42 23.02686 -32.32718 39112 ft 585 kts 125°
2026-04-25 17:43 22.98282 -32.25277 39113 ft 586 kts 125°
2026-04-25 17:43 22.93868 -32.17828 39111 ft 586 kts 125°
2026-04-25 17:44 22.89454 -32.10388 39108 ft 584 kts 125°
2026-04-25 17:44 22.85053 -32.02983 39109 ft 583 kts 125°
2026-04-25 17:45 22.82136 -31.98081 39105 ft 584 kts 125°
2026-04-25 17:45 22.76259 -31.88219 39106 ft 584 kts 125°
2026-04-25 17:46 22.72596 -31.82082 39088 ft 583 kts 125°
2026-04-25 17:46 22.68193 -31.74711 39104 ft 581 kts 126°
2026-04-25 17:47 22.63080 -31.66168 39102 ft 581 kts 126°
2026-04-25 17:47 22.59395 -31.60021 39103 ft 581 kts 126°
2026-04-25 17:48 22.52812 -31.49055 39087 ft 581 kts 126°
2026-04-25 17:49 22.48397 -31.41711 39099 ft 580 kts 126°
2026-04-25 17:49 22.43996 -31.34402 39100 ft 580 kts 126°
2026-04-25 17:50 22.39585 -31.27087 39099 ft 580 kts 126°
2026-04-25 17:50 22.35206 -31.19836 39097 ft 580 kts 126°
2026-04-25 17:51 22.30800 -31.12549 39083 ft 579 kts 126°
2026-04-25 17:51 22.26400 -31.05281 39096 ft 577 kts 126°
2026-04-25 17:52 22.21990 -30.98007 39093 ft 576 kts 126°
2026-04-25 17:52 22.17587 -30.90757 39097 ft 578 kts 126°
2026-04-25 17:53 22.13177 -30.83503 39090 ft 578 kts 126°
2026-04-25 17:53 22.08763 -30.76252 39088 ft 577 kts 126°
2026-04-25 17:54 22.04366 -30.69037 39085 ft 575 kts 126°
2026-04-25 17:54 21.99996 -30.61879 39091 ft 575 kts 126°
2026-04-25 17:55 21.95569 -30.54636 39090 ft 576 kts 126°
2026-04-25 17:55 21.91183 -30.47470 39085 ft 576 kts 126°
2026-04-25 17:56 21.86776 -30.40277 39086 ft 573 kts 126°
2026-04-25 17:56 21.82372 -30.33101 39087 ft 573 kts 126°
2026-04-25 17:57 21.77983 -30.25959 39086 ft 573 kts 126°
2026-04-25 17:57 21.73602 -30.18840 39083 ft 573 kts 126°
2026-04-25 17:58 21.69198 -30.11691 39083 ft 573 kts 126°
2026-04-25 17:58 21.64788 -30.04542 39076 ft 574 kts 126°
2026-04-25 17:59 21.60368 -29.97386 39082 ft 574 kts 126°
2026-04-25 17:59 21.55940 -29.90226 39092 ft 574 kts 126°
2026-04-25 18:00 21.51511 -29.83075 39078 ft 574 kts 126°
2026-04-25 18:00 21.47048 -29.75953 39071 ft 574 kts 128°
2026-04-25 18:01 21.42433 -29.68989 39077 ft 572 kts 129°
2026-04-25 18:01 21.37795 -29.62064 39072 ft 571 kts 129°
2026-04-25 18:02 21.33177 -29.55122 39074 ft 571 kts 128°
2026-04-25 18:02 21.28602 -29.48216 39073 ft 572 kts 128°
2026-04-25 18:03 21.23980 -29.41239 39066 ft 572 kts 128°
2026-04-25 18:03 21.19383 -29.34308 39073 ft 569 kts 128°
2026-04-25 18:04 21.14790 -29.27396 39070 ft 569 kts 128°
2026-04-25 18:04 21.10225 -29.20536 39068 ft 569 kts 128°
2026-04-25 18:05 21.05606 -29.13604 39067 ft 569 kts 128°
2026-04-25 18:05 21.00996 -29.06692 39054 ft 568 kts 128°
2026-04-25 18:06 20.96440 -28.99868 39061 ft 566 kts 128°
2026-04-25 18:06 20.91824 -28.92965 39061 ft 566 kts 129°
2026-04-25 18:07 20.87227 -28.86100 39064 ft 567 kts 129°
2026-04-25 18:07 20.82672 -28.79303 39058 ft 567 kts 129°
2026-04-25 18:08 20.78077 -28.72457 39055 ft 566 kts 128°
2026-04-25 18:08 20.73498 -28.65639 39062 ft 563 kts 129°
2026-04-25 18:09 20.68927 -28.58844 39056 ft 563 kts 129°
2026-04-25 18:09 20.64350 -28.52049 39053 ft 563 kts 129°
2026-04-25 18:10 20.59772 -28.45260 39053 ft 563 kts 129°
2026-04-25 18:10 20.55211 -28.38504 39043 ft 563 kts 129°
2026-04-25 18:11 20.50643 -28.31743 39048 ft 560 kts 129°
2026-04-25 18:11 20.46079 -28.24997 39048 ft 560 kts 129°
2026-04-25 18:12 20.41543 -28.18301 39045 ft 560 kts 129°
2026-04-25 18:12 20.36975 -28.11567 39045 ft 560 kts 129°
2026-04-25 18:13 20.32404 -28.04835 39035 ft 560 kts 129°
2026-04-25 18:13 20.27837 -27.98117 39048 ft 558 kts 129°
2026-04-25 18:14 20.21017 -27.88098 39041 ft 558 kts 129°
2026-04-25 18:14 20.16453 -27.81402 39045 ft 558 kts 129°
2026-04-25 18:15 20.11918 -27.74757 39041 ft 558 kts 129°
2026-04-25 18:15 20.07348 -27.68070 39035 ft 557 kts 129°
2026-04-25 18:16 20.02793 -27.61409 39038 ft 555 kts 129°
2026-04-25 18:17 19.95970 -27.51449 39038 ft 555 kts 129°
2026-04-25 18:17 19.91417 -27.44811 39039 ft 555 kts 129°
2026-04-25 18:18 19.86858 -27.38173 39035 ft 556 kts 129°
2026-04-25 18:18 19.82303 -27.31547 39029 ft 554 kts 129°
2026-04-25 18:19 19.77770 -27.24959 39027 ft 552 kts 129°
2026-04-25 18:19 19.73236 -27.18380 39029 ft 552 kts 129°
2026-04-25 18:20 19.68686 -27.11783 39030 ft 552 kts 129°
2026-04-25 18:20 19.64170 -27.05244 39027 ft 553 kts 129°
2026-04-25 18:21 19.59630 -26.98676 39009 ft 552 kts 129°
2026-04-25 18:21 19.55098 -26.92124 39026 ft 549 kts 129°
2026-04-25 18:22 19.50579 -26.85603 39032 ft 548 kts 129°
2026-04-25 18:22 19.46057 -26.79083 39026 ft 549 kts 129°
2026-04-25 18:23 19.41536 -26.72571 39024 ft 549 kts 129°
2026-04-25 18:23 19.37765 -26.67145 39023 ft 549 kts 129°
2026-04-25 18:24 19.33209 -26.60595 39023 ft 549 kts 129°
2026-04-25 18:24 19.28675 -26.54084 39022 ft 549 kts 129°
2026-04-25 18:25 19.24140 -26.47579 39026 ft 548 kts 129°
2026-04-25 18:25 19.19615 -26.41093 39023 ft 548 kts 129°
2026-04-25 18:26 19.15082 -26.34606 39018 ft 548 kts 129°
2026-04-25 18:26 19.10548 -26.28123 39010 ft 547 kts 129°
2026-04-25 18:27 19.06048 -26.21692 39015 ft 545 kts 130°
2026-04-25 18:27 19.01533 -26.15249 39011 ft 545 kts 130°
2026-04-25 18:28 18.97013 -26.08806 39014 ft 545 kts 130°
2026-04-25 18:28 18.92531 -26.02406 39015 ft 545 kts 129°
2026-04-25 18:29 18.85830 -25.92713 39012 ft 545 kts 129°
2026-04-25 18:30 18.76896 -25.79818 39014 ft 542 kts 129°
2026-04-25 18:30 18.72425 -25.73387 39013 ft 542 kts 129°
2026-04-25 18:31 18.67989 -25.67012 39011 ft 542 kts 129°
2026-04-25 18:31 18.63520 -25.60596 39011 ft 542 kts 129°
2026-04-25 18:32 18.59057 -25.54195 39001 ft 542 kts 129°
2026-04-25 18:32 18.54584 -25.47784 39008 ft 541 kts 129°
2026-04-25 18:33 18.50146 -25.41432 39005 ft 541 kts 129°
2026-04-25 18:33 18.45686 -25.35054 39002 ft 541 kts 129°
2026-04-25 18:34 18.41216 -25.28668 39003 ft 541 kts 129°
2026-04-25 18:34 18.36746 -25.22289 39002 ft 541 kts 129°
2026-04-25 18:35 18.32275 -25.15914 38998 ft 540 kts 130°
2026-04-25 18:35 18.27820 -25.09567 39002 ft 539 kts 130°
2026-04-25 18:36 18.23364 -25.03227 39002 ft 539 kts 130°
2026-04-25 18:36 18.18926 -24.96918 38996 ft 539 kts 130°
2026-04-25 18:37 18.14467 -24.90585 38998 ft 539 kts 130°
2026-04-25 18:37 18.09999 -24.84245 39000 ft 539 kts 130°
2026-04-25 18:38 18.05540 -24.77924 38996 ft 538 kts 130°
2026-04-25 18:38 18.01083 -24.71613 38994 ft 537 kts 130°
2026-04-25 18:39 17.96626 -24.65308 38994 ft 537 kts 130°
2026-04-25 18:39 17.92197 -24.59044 38993 ft 526 kts 130°
2026-04-25 18:40 17.87892 -24.52961 38989 ft 520 kts 130°
2026-04-25 18:40 17.83566 -24.46861 38988 ft 520 kts 130°
2026-04-25 18:41 17.79249 -24.40781 38987 ft 519 kts 130°
2026-04-25 18:41 17.74936 -24.34708 38985 ft 519 kts 130°
2026-04-25 18:42 17.71348 -24.29660 38986 ft 519 kts 130°
2026-04-25 18:42 17.66303 -24.22619 38983 ft 519 kts 130°
2026-04-25 18:43 17.61927 -24.16561 38983 ft 519 kts 130°
2026-04-25 18:43 17.57567 -24.10521 38983 ft 519 kts 130°
2026-04-25 18:44 17.53220 -24.04494 38978 ft 518 kts 130°
2026-04-25 18:44 17.48900 -23.98509 38979 ft 517 kts 130°
2026-04-25 18:45 17.44551 -23.92488 38977 ft 517 kts 130°
2026-04-25 18:45 17.40207 -23.86481 38976 ft 517 kts 130°
2026-04-25 18:46 17.35858 -23.80472 38975 ft 517 kts 130°
2026-04-25 18:46 17.31511 -23.74470 38983 ft 517 kts 131°
2026-04-25 18:47 17.27159 -23.68468 38967 ft 517 kts 130°
2026-04-25 18:47 17.22822 -23.62490 38973 ft 515 kts 130°
2026-04-25 18:48 17.18491 -23.56526 38971 ft 515 kts 130°
2026-04-25 18:48 17.14165 -23.50577 38970 ft 515 kts 130°
2026-04-25 18:49 17.09853 -23.44650 38970 ft 515 kts 130°
2026-04-25 18:49 17.05517 -23.38694 38973 ft 514 kts 131°
2026-04-25 18:50 17.01175 -23.32736 38952 ft 513 kts 131°
2026-04-25 18:50 16.96855 -23.26813 38953 ft 511 kts 131°
2026-04-25 18:51 16.93996 -23.22897 38955 ft 510 kts 131°
2026-04-25 18:51 16.88265 -23.15052 38972 ft 510 kts 131°
2026-04-25 18:52 16.83926 -23.09119 38941 ft 510 kts 131°
2026-04-25 18:52 16.79620 -23.03236 38938 ft 510 kts 131°
2026-04-25 18:53 16.75391 -22.97400 38933 ft 512 kts 127°
2026-04-25 18:53 16.72172 -22.90792 38931 ft 517 kts 114°
2026-04-25 18:54 16.68422 -22.80213 38934 ft 518 kts 111°
2026-04-25 18:55 16.65978 -22.73072 38942 ft 518 kts 112°
2026-04-25 18:55 16.63530 -22.66002 38944 ft 519 kts 112°
2026-04-25 18:56 16.61063 -22.58935 38942 ft 519 kts 112°
2026-04-25 18:56 16.58603 -22.51907 38942 ft 519 kts 112°
2026-04-25 18:57 16.56125 -22.44837 38947 ft 519 kts 112°
2026-04-25 18:57 16.53644 -22.37764 38948 ft 519 kts 112°
2026-04-25 18:58 16.51162 -22.30693 38950 ft 519 kts 112°
2026-04-25 18:58 16.47437 -22.20100 38936 ft 517 kts 112°
2026-04-25 18:59 16.42490 -22.06059 38959 ft 516 kts 112°
2026-04-25 19:00 16.38768 -21.95522 38938 ft 516 kts 112°
2026-04-25 19:01 16.35061 -21.85043 38937 ft 516 kts 112°
2026-04-25 19:01 16.32575 -21.78025 38943 ft 516 kts 112°
2026-04-25 19:02 16.28841 -21.67500 38936 ft 517 kts 112°
2026-04-25 19:03 16.25928 -21.59329 38936 ft 517 kts 112°
2026-04-25 19:03 16.22972 -21.51124 38938 ft 516 kts 112°
2026-04-25 19:04 16.19195 -21.40634 38939 ft 516 kts 112°
2026-04-25 19:05 16.14160 -21.26658 38936 ft 516 kts 112°
2026-04-25 19:06 16.11635 -21.19663 38939 ft 516 kts 112°
2026-04-25 19:06 16.07845 -21.09177 38941 ft 516 kts 112°
2026-04-25 19:07 16.04050 -20.98695 38937 ft 516 kts 112°
2026-04-25 19:08 16.00264 -20.88256 38939 ft 516 kts 112°
2026-04-25 19:09 15.95619 -20.75473 38929 ft 515 kts 112°
2026-04-25 19:10 15.91386 -20.63848 38925 ft 514 kts 112°
2026-04-25 19:10 15.88869 -20.56944 38924 ft 515 kts 112°
2026-04-25 19:11 15.86329 -20.49989 38926 ft 515 kts 112°
2026-04-25 19:11 15.83786 -20.43029 38922 ft 515 kts 112°
2026-04-25 19:12 15.81243 -20.36080 38925 ft 515 kts 112°
2026-04-25 19:12 15.78699 -20.29134 38922 ft 515 kts 112°
2026-04-25 19:13 15.76152 -20.22187 38920 ft 515 kts 112°
2026-04-25 19:13 15.73599 -20.15235 38920 ft 515 kts 112°
2026-04-25 19:14 15.71051 -20.08301 38917 ft 513 kts 112°
2026-04-25 19:14 15.68507 -20.01388 38914 ft 513 kts 112°
2026-04-25 19:15 15.65979 -19.94456 38911 ft 513 kts 112°
2026-04-25 19:15 15.63520 -19.87518 38911 ft 513 kts 111°
2026-04-25 19:16 15.61066 -19.80604 38911 ft 513 kts 112°
2026-04-25 19:16 15.58586 -19.73655 38909 ft 512 kts 112°
2026-04-25 19:17 15.56107 -19.66727 38908 ft 512 kts 112°
2026-04-25 19:17 15.53622 -19.59792 38906 ft 512 kts 112°
2026-04-25 19:18 15.51142 -19.52881 38907 ft 512 kts 112°
2026-04-25 19:18 15.48653 -19.45953 38915 ft 512 kts 112°
2026-04-25 19:19 15.46024 -19.39103 38902 ft 510 kts 117°
2026-04-25 19:19 15.42881 -19.32536 38904 ft 508 kts 118°
2026-04-25 19:20 15.39703 -19.25967 38690 ft 508 kts 118°
2026-04-25 19:20 15.36534 -19.19407 38516 ft 510 kts 118°
2026-04-25 19:20 15.34946 -19.16122 38070 ft 510 kts 118°
2026-04-25 19:21 15.33371 -19.12863 37273 ft 513 kts 118°
2026-04-25 19:21 15.30167 -19.06238 35937 ft 514 kts 117°
2026-04-25 19:21 15.28560 -19.02915 35372 ft 515 kts 117°
2026-04-25 19:22 15.26930 -18.99548 34861 ft 518 kts 117°
2026-04-25 19:22 15.25330 -18.96244 34353 ft 520 kts 117°
2026-04-25 19:22 15.22067 -18.89511 33271 ft 524 kts 117°
2026-04-25 19:23 15.20429 -18.86131 32746 ft 525 kts 117°
2026-04-25 19:23 15.17141 -18.79356 31945 ft 527 kts 116°
2026-04-25 19:23 15.15493 -18.75963 31886 ft 527 kts 116°
2026-04-25 19:24 15.12205 -18.69195 31707 ft 522 kts 116°
2026-04-25 19:24 15.08928 -18.62456 30027 ft 528 kts 116°
2026-04-25 19:25 15.05640 -18.55701 28817 ft 520 kts 116°
2026-04-25 19:25 15.04015 -18.52367 28258 ft 514 kts 116°
2026-04-25 19:25 15.02415 -18.49084 27731 ft 509 kts 116°
2026-04-25 19:26 15.00830 -18.45832 27204 ft 504 kts 116°
2026-04-25 19:26 14.99275 -18.42644 26711 ft 498 kts 116°
2026-04-25 19:26 14.97724 -18.39464 26194 ft 493 kts 116°
2026-04-25 19:26 14.96187 -18.36316 25692 ft 489 kts 116°
2026-04-25 19:27 14.94658 -18.33186 25183 ft 484 kts 116°
2026-04-25 19:27 14.94149 -18.32143 25057 ft 481 kts 116°
2026-04-25 19:27 14.91684 -18.27096 24626 ft 463 kts 116°
2026-04-25 19:27 14.90249 -18.24164 24200 ft 449 kts 116°
2026-04-25 19:28 14.88868 -18.21345 23936 ft 426 kts 116°
2026-04-25 19:28 14.87566 -18.18687 23799 ft 402 kts 116°
2026-04-25 19:28 14.86330 -18.16164 23411 ft 387 kts 116°
2026-04-25 19:28 14.85128 -18.13709 22814 ft 380 kts 117°
2026-04-25 19:29 14.83905 -18.11211 22402 ft 397 kts 117°
2026-04-25 19:29 14.82640 -18.08632 22260 ft 402 kts 117°
2026-04-25 19:29 14.81411 -18.06123 21722 ft 390 kts 117°
2026-04-25 19:29 14.80187 -18.03626 20922 ft 392 kts 117°
2026-04-25 19:30 14.79339 -18.01898 20625 ft 399 kts 117°
2026-04-25 19:30 14.77677 -17.98510 20185 ft 398 kts 117°
2026-04-25 19:30 14.76424 -17.95958 19724 ft 396 kts 118°
2026-04-25 19:30 14.75179 -17.93421 19238 ft 395 kts 118°
2026-04-25 19:31 14.73937 -17.90892 18784 ft 392 kts 118°
2026-04-25 19:31 14.72733 -17.88439 18165 ft 383 kts 118°
2026-04-25 19:31 14.71532 -17.85994 17571 ft 377 kts 118°
2026-04-25 19:31 14.70343 -17.83576 17088 ft 377 kts 118°
2026-04-25 19:32 14.69157 -17.81166 16619 ft 374 kts 118°
2026-04-25 19:32 14.67986 -17.78785 16167 ft 370 kts 118°
2026-04-25 19:32 14.66822 -17.76420 15709 ft 367 kts 118°
2026-04-25 19:32 14.66434 -17.75631 15556 ft 366 kts 119°
2026-04-25 19:33 14.64526 -17.71756 14801 ft 359 kts 119°
2026-04-25 19:33 14.63400 -17.69469 14367 ft 356 kts 119°
2026-04-25 19:33 14.62281 -17.67199 13924 ft 352 kts 119°
2026-04-25 19:33 14.61173 -17.64950 13471 ft 349 kts 119°
2026-04-25 19:34 14.60096 -17.62765 13029 ft 346 kts 119°
2026-04-25 19:34 14.58987 -17.60517 12599 ft 343 kts 120°
2026-04-25 19:34 14.57920 -17.58370 12264 ft 338 kts 119°
2026-04-25 19:34 14.56834 -17.56187 11926 ft 333 kts 119°
2026-04-25 19:35 14.55776 -17.54075 11586 ft 330 kts 120°
2026-04-25 19:35 14.54729 -17.51993 11217 ft 327 kts 120°
2026-04-25 19:35 14.53669 -17.49920 10822 ft 326 kts 121°